Weather History for MMTO - November, 2013

Change the Weather History Date:

Wednesday, November 6, 2013

  Actual Average Record
Temperature  
Mean Temperature 54 °F -  
Max Temperature 69 °F 68 °F 75 °F (2003)
Min Temperature 39 °F 37 °F 21 °F (2010)
Degree Days  
Heating Degree Days 11    
Growing Degree Days 4 (Base 50)    
Moisture  
Dew Point 40 °F    
Average Humidity 70    
Maximum Humidity 93    
Minimum Humidity 15    
Precipitation  
Precipitation 0.00 in - - ()
Sea Level Pressure  
Sea Level Pressure 30.18 in    
Wind  
Wind Speed 3 mph ()    
Max Wind Speed 13 mph    
Max Gust Speed -    
Visibility 4.5 miles    
Events Fog    
Averages and records for this station are not official NWS values.
T = Trace of Precipitation, MM = Missing Value Source: Averaged Metar Reports

Daily Weather History Graph

Daily Weather History Graph

Search for Another Location

Airport or City:

Trip Planner

Search our weather history database for the weather conditions in past years. The results will help you decide how hot, cold, wet, or windy it might be!

Date:

Astronomy

Nov. 06, 2013 Rise Set
Actual Time 6:41 AM CST 6:02 PM CST
Civil Twilight 6:18 AM CST 6:24 PM CST
Nautical Twilight 5:52 AM CST 6:51 PM CST
Astronomical Twilight 5:26 AM CST 7:17 PM CST
Moon 9:47 AM CST (11/6) 9:17 PM CST (11/6)
Length of Visible Light 12h 06m
Length of Day
11h 20m
Waxing Crescent, 14% of the Moon is Illuminated
Nov 6
Waxing Crescent
Nov 9
First Quarter
Nov 17
Full
Nov 25
Last Quarter
Dec 2
New

Hourly Weather History & Observations

Time (CST) Temp. Windchill Dew Point Humidity Pressure Visibility Wind Dir Wind Speed Gust Speed Precip Events Conditions
12:41 AM 46.4 °F - 42.8 °F 87% 30.33 in 6.0 mi Calm Calm - N/A   Partly Cloudy
1:43 AM 46.4 °F 44.3 °F 42.8 °F 87% 30.32 in 5.0 mi North 4.6 mph - N/A   Clear
2:45 AM 46.4 °F - 42.8 °F 87% 29.80 in 5.0 mi Calm Calm - N/A   Clear
3:43 AM 42.8 °F - 41.0 °F 93% 30.30 in 3.0 mi Calm Calm - N/A   Clear
4:42 AM 42.8 °F - 41.0 °F 93% 30.30 in 3.0 mi Calm Calm - N/A   Clear
5:47 AM 42.8 °F - 39.2 °F 87% 29.88 in 3.0 mi Calm Calm - N/A   Partly Cloudy
6:47 AM 39.2 °F - 37.4 °F 93% 30.33 in 0.5 mi Calm Calm - N/A Fog Fog
7:30 AM 39.2 °F - 37.4 °F 93% 30.34 in 0.2 mi Calm Calm - N/A Fog Fog
7:45 AM 41.0 °F - 39.2 °F 93% 30.35 in 0.1 mi Calm Calm - N/A Fog Fog
8:30 AM 46.4 °F - 42.8 °F 87% 30.36 in 1.0 mi Calm Calm - N/A Fog Fog
8:45 AM 46.4 °F - 42.8 °F 87% 29.91 in 1.0 mi Calm Calm - N/A Fog Fog
9:41 AM 53.6 °F - 48.2 °F 82% 30.37 in 2.0 mi NW 3.5 mph - N/A   Clear
10:43 AM 62.6 °F - 44.6 °F 52% 30.35 in 3.0 mi NNW 5.8 mph - N/A   Haze
11:47 AM 66.2 °F - 42.8 °F 43% 29.75 in 7.0 mi NW 5.8 mph - N/A   Scattered Clouds
12:43 PM 69.8 °F - 30.2 °F 23% 30.30 in 7.0 mi East 8.1 mph - N/A   Scattered Clouds
1:55 PM 69.8 °F - 28.4 °F 21% 30.29 in 7.0 mi NE 11.5 mph - N/A   Scattered Clouds
2:42 PM 69.8 °F - 19.4 °F 15% 29.70 in 7.0 mi ENE 9.2 mph - N/A   Scattered Clouds
3:42 PM 68.0 °F - 32.0 °F 26% 30.27 in 7.0 mi NE 12.7 mph - N/A   Scattered Clouds
4:44 PM 66.2 °F - 35.6 °F 32% 30.28 in 7.0 mi East 9.2 mph - N/A   Scattered Clouds
5:44 PM 62.6 °F - 48.2 °F 59% 29.81 in 7.0 mi SE 6.9 mph - N/A   Scattered Clouds
6:43 PM 55.4 °F - 48.2 °F 77% 30.32 in 6.0 mi ESE 10.4 mph - N/A   Mostly Cloudy
7:43 PM 53.6 °F - 48.2 °F 82% 30.35 in 6.0 mi SE 11.5 mph - N/A   Mostly Cloudy
8:42 PM 53.6 °F - 48.2 °F 82% 29.93 in 6.0 mi East 4.6 mph - N/A   Mostly Cloudy
9:43 PM 50.0 °F - 42.8 °F 76% 30.40 in 6.0 mi NE 6.9 mph - N/A   Scattered Clouds
10:47 PM 48.2 °F - 42.8 °F 82% 30.41 in 6.0 mi Calm Calm - N/A   Scattered Clouds
11:45 PM 48.2 °F - 42.8 °F 82% 29.83 in 6.0 mi Calm Calm - N/A   Partly Cloudy